This is the latest recevied weather packets stored in our database for station/object W4KAB. If no packets are shown the sender has not sent any weather packets the latest 1 day(s).
| Time | Temp. | Humidity | Pressure | Rain* | Wind** | Luminosity | Snow |
|---|---|---|---|---|---|---|---|
| 1777972522 | 11.67° C | 76% | 1016.6 hPa | 0 mm | 0 m/s | 0 W/m² | - |
| 1777972220 | 11.67° C | 75% | 1016.7 hPa | 0 mm | 0 m/s | 0 W/m² | - |
| 1777971918 | 11.67° C | 75% | 1016.6 hPa | 0 mm | 0 m/s | 0 W/m² | - |
| 1777971616 | 11.67° C | 76% | 1016.6 hPa | 0 mm | 0 m/s | 0 W/m² | - |
| 1777971314 | 11.67° C | 76% | 1016.6 hPa | 0 mm | 0 m/s | 0 W/m² | - |
| 1777971012 | 11.11° C | 77% | 1016.3 hPa | 0 mm | 0 m/s | 0 W/m² | - |
| 1777970710 | 11.11° C | 77% | 1016.6 hPa | 0 mm | 0 m/s | 0 W/m² | - |
| 1777970407 | 11.11° C | 78% | 1016.1 hPa | 0 mm | 0 m/s | 0 W/m² | - |
| 1777970104 | 11.11° C | 78% | 1016.3 hPa | 0 mm | 0 m/s | 0 W/m² | - |
| 1777969800 | 11.11° C | 78% | 1016.2 hPa | 0 mm | 0 m/s | 0 W/m² | - |
| 1777969496 | 11.67° C | 76% | 1016.1 hPa | 0 mm | 0 m/s | 0 W/m² | - |
| 1777969193 | 12.22° C | 76% | 1016.3 hPa | 0 mm | 0 m/s | 0 W/m² | - |
| 1777968890 | 12.22° C | 74% | 1015.9 hPa | 0 mm | 0 m/s | 0 W/m² | - |
| 1777968587 | 12.22° C | 75% | 1016 hPa | 0 mm | 0 m/s | 0 W/m² | - |
| 1777968283 | 12.22° C | 73% | 1016.2 hPa | 0 mm | 0 m/s | 0 W/m² | - |
| 1777967978 | 11.67° C | 75% | 1016.2 hPa | 0 mm | 0 m/s | 0 W/m² | - |
| 1777967675 | 11.67° C | 75% | 1015.9 hPa | 0 mm | 0 m/s | 0 W/m² | - |
| 1777967373 | 11.67° C | 75% | 1016.1 hPa | 0 mm | 0 m/s | 0 W/m² | - |
| 1777967070 | 11.67° C | 74% | 1016 hPa | 0 mm | 0 m/s | 0 W/m² | - |
| 1777966767 | 12.22° C | 74% | 1015.7 hPa | 0 mm | 0 m/s | 0 W/m² | - |
| 1777966465 | 12.22° C | 73% | 1015.6 hPa | 0 mm | 0 m/s | 0 W/m² | - |
| 1777966161 | 12.22° C | 72% | 1015.7 hPa | 0 mm | 0 m/s | 0 W/m² | - |
| 1777965858 | 12.78° C | 72% | 1015.4 hPa | 0 mm | 0 m/s | 0 W/m² | - |
| 1777965554 | 12.78° C | 71% | 1015.7 hPa | 0 mm | 0 m/s | 0 W/m² | - |
| 1777965250 | 12.78° C | 71% | 1015.7 hPa | 0 mm | 0 m/s | 0 W/m² | - |
* Rain latest hour (hover to see other rain measurements)
** Current wind speed in m/s (hover to see current wind gust speed)